Tracking 18984 objects as of 24-Feb-2018
HD Live streaming from Space Station
objects crossing your sky now

FENGYUN 1C DEB

Track FENGYUN 1C DEB now!
10-day predictions


NORAD ID: 30951
Int'l Code: 1999-025BAR
Perigee: 618.9 km
Apogee: 810.9 km
Inclination: 99.9 °
Period: 98.9 minutes
Semi major axis: 7085 km
RCS: 0.0121 m2 (small)
Launch date: May 10, 1999
Source: People's Republic of China (PRC)
Launch site: Taiyaun Space Center, China (TSC)

Note: This is SATELLITE DEBRIS
aabbcc
Your satellite tracking list
Your tracking list is empty




NASA's NSSDC Master Catalog

Two Line Element Set (TLE):
1 30951U 99025BAR 18054.85370278  .00000965  00000-0  21009-3 0  9996
2 30951  99.8865  22.4936 0135483 104.6857 287.3783 14.55503487579490
Source of the keplerian elements: AFSPC